Weather History for Palm Springs, CA

Change the Weather History Date:

Saturday, January 18, 2014

  Actual Average Record
Temperature  
Mean Temperature 67 °F 58 °F  
Max Temperature 81 °F 69 °F 95 °F (1971)
Min Temperature 52 °F 46 °F 30 °F (1937)
Degree Days  
Heating Degree Days 0 8  
Month to date heating degree days 63 150  
Since 1 July heating degree days 344 536  
Cooling Degree Days 2 0  
Month to date cooling degree days 20 0  
Year to date cooling degree days 20 0  
Growing Degree Days 17 (Base 50)    
Moisture  
Dew Point 9 °F    
Average Humidity 10    
Maximum Humidity 13    
Minimum Humidity 6    
Precipitation  
Precipitation 0.00 in 0.03 in 0.95 in (2010)
Month to date precipitation 0.00 0.75  
Year to date precipitation 0.00 0.75  
Since 1 July precipitation 1.26 3.55  
Snow  
Snow 0.00 in - - ()
Month to date snowfall 0.0  
Year to date snowfall 0.0  
Since 1 July snowfall 0.0  
Snow Depth 0.00 in    
Sea Level Pressure  
Sea Level Pressure 30.09 in    
Wind  
Wind Speed 6 mph (North)    
Max Wind Speed 10 mph    
Max Gust Speed 13 mph    
Visibility 10 miles    
Events      
T = Trace of Precipitation, MM = Missing Value Source: NWS Daily Summary

Daily Weather History Graph

Daily Weather History Graph

Search for Another Location

Airport:

Trip Planner

Search our weather history database for the weather conditions in past years. The results will help you decide how hot, cold, wet, or windy it might be!

Date:

Astronomy

Jan. 18, 2014 Rise Set
Actual Time 6:49 AM PST 5:03 PM PST
Civil Twilight 6:23 AM PST 5:30 PM PST
Nautical Twilight 5:52 AM PST 6:00 PM PST
Astronomical Twilight 5:22 AM PST 6:30 PM PST
Moon 7:39 PM PST (1/18) 8:00 AM PST (1/18)
Length of Visible Light 11h 07m
Length of Day
10h 13m
Waning Gibbous, 94% of the Moon is Illuminated
Jan 18
Waning Gibbous
Jan 23
Last Quarter
Jan 30
New
Feb 6
First Quarter
Feb 14
Full

Hourly Weather History & Observations

Time (PST) Temp. Dew Point Humidity Pressure Visibility Wind Dir Wind Speed Gust Speed Precip Events Conditions
12:53 AM 55.9 °F 3.0 °F 12% 30.08 in 10.0 mi NNW 8.1 mph - N/A   Clear
1:53 AM 57.0 °F 3.0 °F 11% 30.09 in 10.0 mi NW 9.2 mph - N/A   Clear
2:53 AM 57.0 °F 1.9 °F 11% 30.08 in 10.0 mi NW 8.1 mph - N/A   Clear
3:53 AM 54.0 °F 1.9 °F 12% 30.08 in 10.0 mi NNW 8.1 mph - N/A   Clear
4:53 AM 53.1 °F 3.9 °F 14% 30.08 in 10.0 mi NNW 5.8 mph - N/A   Clear
5:53 AM 55.9 °F 1.9 °F 11% 30.08 in 10.0 mi NW 6.9 mph - N/A   Clear
6:53 AM 55.9 °F 1.0 °F 11% 30.10 in 10.0 mi NNW 5.8 mph - N/A   Clear
7:53 AM 57.9 °F 3.9 °F 11% 30.12 in 10.0 mi NW 5.8 mph - N/A   Clear
8:53 AM 63.0 °F 8.1 °F 11% 30.13 in 10.0 mi NNW 4.6 mph - N/A   Partly Cloudy
9:53 AM 71.1 °F 9.0 °F 9% 30.15 in 10.0 mi Calm Calm - N/A   Partly Cloudy
10:53 AM 73.9 °F 10.0 °F 9% 30.13 in 10.0 mi ESE 6.9 mph - N/A   Partly Cloudy
11:53 AM 77.0 °F 10.0 °F 8% 30.10 in 10.0 mi East 4.6 mph - N/A   Clear
12:53 PM 78.1 °F 10.0 °F 7% 30.06 in 10.0 mi Variable 5.8 mph - N/A   Clear
1:53 PM 79.0 °F 12.0 °F 8% 30.04 in 10.0 mi East 5.8 mph - N/A   Clear
2:53 PM 81.0 °F 9.0 °F 6% 30.04 in 10.0 mi East 5.8 mph - N/A   Clear
3:53 PM 79.0 °F 8.1 °F 7% 30.05 in 10.0 mi East 5.8 mph - N/A   Clear
4:53 PM 75.0 °F 17.1 °F 11% 30.06 in 10.0 mi SE 3.5 mph - N/A   Clear
5:53 PM 72.0 °F 21.9 °F 15% 30.08 in 10.0 mi East 3.5 mph - N/A   Scattered Clouds
6:53 PM 66.9 °F 17.1 °F 15% 30.09 in 10.0 mi Calm Calm - N/A   Clear
7:53 PM 62.1 °F 16.0 °F 17% 30.10 in 10.0 mi NNW 5.8 mph - N/A   Clear
8:53 PM 57.9 °F 12.0 °F 16% 30.11 in 10.0 mi NNW 6.9 mph - N/A   Clear
9:53 PM 57.9 °F 9.0 °F 14% 30.12 in 10.0 mi NW 6.9 mph - N/A   Clear
10:53 PM 55.9 °F 12.0 °F 18% 30.11 in 10.0 mi NW 8.1 mph - N/A   Clear
11:53 PM 57.0 °F 12.0 °F 17% 30.10 in 10.0 mi NNW 6.9 mph - N/A   Clear